Time,TemperatureF,DewpointF,PressureIn,WindDirection,WindDirectionDegrees,WindSpeedMPH,WindSpeedGustMPH,Humidity,HourlyPrecipIn,Conditions,Clouds,dailyrainin,SoftwareType,DateUTC
2013-11-11 02:22:00,-999.0,-99.9,-100.00,North,-999,1.0,4.0,47,-99.99,,,-99.99,,2013-11-11 09:22:00,
2013-11-11 07:22:00,-999.0,-99.9,-100.00,North,-999,2.0,3.0,52,-99.99,,,-99.99,,2013-11-11 14:22:00,
2013-11-11 12:00:00,72.0,-99.9,-100.00,North,-999,4.0,10.0,21,-99.99,,,-99.99,,2013-11-11 19:00:00,
2013-11-11 12:22:00,-999.0,-99.9,-100.00,North,-999,4.0,10.0,21,-99.99,,,-99.99,,2013-11-11 19:22:00,
2013-11-11 12:42:00,72.0,-99.9,-100.00,North,-999,4.0,10.0,21,-99.99,,,-99.99,,2013-11-11 19:42:00,
2013-11-11 12:53:00,72.0,-99.9,-100.00,North,-999,4.0,10.0,21,-99.99,,,-99.99,,2013-11-11 19:53:00,
2013-11-11 13:00:00,73.0,-99.9,-100.00,North,-999,3.0,6.0,20,-99.99,,,-99.99,,2013-11-11 20:00:00,
2013-11-11 13:42:00,73.0,-99.9,-100.00,North,-999,3.0,6.0,20,-99.99,,,-99.99,,2013-11-11 20:42:00,
2013-11-11 13:52:00,73.0,-99.9,-100.00,North,-999,3.0,6.0,20,-99.99,,,-99.99,,2013-11-11 20:52:00,
2013-11-11 14:00:00,73.0,-99.9,-100.00,North,-999,3.0,8.0,20,-99.99,,,-99.99,,2013-11-11 21:00:00,
2013-11-11 14:43:00,73.0,-99.9,-100.00,North,-999,3.0,8.0,20,-99.99,,,-99.99,,2013-11-11 21:43:00,
2013-11-11 14:55:00,73.0,-99.9,-100.00,North,-999,3.0,8.0,20,-99.99,,,-99.99,,2013-11-11 21:55:00,
2013-11-11 15:00:00,74.0,-99.9,-100.00,North,-999,3.0,8.0,19,-99.99,,,-99.99,,2013-11-11 22:00:00,
2013-11-11 15:24:00,-999.0,-99.9,-100.00,North,-999,3.0,8.0,19,-99.99,,,-99.99,,2013-11-11 22:24:00,
2013-11-11 15:43:00,74.0,-99.9,-100.00,North,-999,3.0,8.0,19,-99.99,,,-99.99,,2013-11-11 22:43:00,
2013-11-11 15:53:00,74.0,-99.9,-100.00,North,-999,3.0,8.0,19,-99.99,,,-99.99,,2013-11-11 22:53:00,
2013-11-11 16:00:00,74.0,-99.9,-100.00,North,-999,2.0,6.0,19,-99.99,,,-99.99,,2013-11-11 23:00:00,
2013-11-11 16:43:00,74.0,-99.9,-100.00,North,-999,2.0,6.0,19,-99.99,,,-99.99,,2013-11-11 23:43:00,
2013-11-11 16:53:00,74.0,-99.9,-100.00,North,-999,2.0,6.0,19,-99.99,,,-99.99,,2013-11-11 23:53:00,
2013-11-11 18:00:00,59.0,-99.9,-100.00,North,-999,2.0,4.0,29,-99.99,,,-99.99,,2013-11-12 01:00:00,
2013-11-11 18:52:00,59.0,-99.9,-100.00,North,-999,2.0,4.0,29,-99.99,,,-99.99,,2013-11-12 01:52:00,
2013-11-11 19:22:00,-999.0,-99.9,-100.00,North,-999,1.0,4.0,35,-99.99,,,-99.99,,2013-11-12 02:22:00,
2013-11-11 21:24:00,-999.0,-99.9,-100.00,North,-999,1.0,5.0,44,-99.99,,,-99.99,,2013-11-12 04:24:00,